Year,Month,Day,Hour,Minute,Value (Times are PST for temperature in C)
2017,10,14,00,00,3.70
2017,10,14,00,01,3.70
2017,10,14,00,02,3.60
2017,10,14,00,03,3.60
2017,10,14,00,04,3.60
2017,10,14,00,05,3.60
2017,10,14,00,06,3.60
2017,10,14,00,07,3.60
2017,10,14,00,08,3.60
2017,10,14,00,09,3.60
2017,10,14,00,10,3.60
2017,10,14,00,11,3.60
2017,10,14,00,12,3.60
2017,10,14,00,13,3.60
2017,10,14,00,14,3.60
2017,10,14,00,15,3.60
2017,10,14,00,16,3.70
2017,10,14,00,17,3.70
2017,10,14,00,18,3.70
2017,10,14,00,19,3.70
2017,10,14,00,20,3.70
2017,10,14,00,21,3.70
2017,10,14,00,22,3.70
2017,10,14,00,23,3.70
2017,10,14,00,24,3.70
2017,10,14,00,25,3.70
2017,10,14,00,26,3.70
2017,10,14,00,27,3.70
2017,10,14,00,28,3.70
2017,10,14,00,29,3.70
2017,10,14,00,30,3.70
2017,10,14,00,31,3.70
2017,10,14,00,32,3.70
2017,10,14,00,33,3.80
2017,10,14,00,34,3.80
2017,10,14,00,35,3.80
2017,10,14,00,36,3.80
2017,10,14,00,37,3.80
2017,10,14,00,38,3.80
2017,10,14,00,39,3.80
2017,10,14,00,40,3.80
2017,10,14,00,41,3.80
2017,10,14,00,42,3.80
2017,10,14,00,43,3.80
2017,10,14,00,44,3.80
2017,10,14,00,45,3.80
2017,10,14,00,46,3.80
2017,10,14,00,47,3.80
2017,10,14,00,48,3.80
2017,10,14,00,49,3.80
2017,10,14,00,50,3.80
2017,10,14,00,51,3.80
2017,10,14,00,52,3.80
2017,10,14,00,53,3.80
2017,10,14,00,54,3.80
2017,10,14,00,55,3.80
2017,10,14,00,56,3.80
2017,10,14,00,57,3.80
2017,10,14,00,58,3.80
2017,10,14,00,59,3.80
2017,10,14,01,00,3.80
2017,10,14,01,01,3.80
2017,10,14,01,02,3.80
2017,10,14,01,03,3.80
2017,10,14,01,04,3.80
2017,10,14,01,05,3.80
2017,10,14,01,06,3.80
2017,10,14,01,07,3.80
2017,10,14,01,08,3.90
2017,10,14,01,09,3.80
2017,10,14,01,10,3.80
2017,10,14,01,11,3.80
2017,10,14,01,12,3.80
2017,10,14,01,13,3.80
2017,10,14,01,14,3.80
2017,10,14,01,15,3.80
2017,10,14,01,16,3.80
2017,10,14,01,17,3.80
2017,10,14,01,18,3.80
2017,10,14,01,19,3.80
2017,10,14,01,20,3.80
2017,10,14,01,21,3.80
2017,10,14,01,22,3.80
2017,10,14,01,23,3.80
2017,10,14,01,24,3.80
2017,10,14,01,25,3.80
2017,10,14,01,26,3.80
2017,10,14,01,27,3.80
2017,10,14,01,28,3.80
2017,10,14,01,29,3.80
2017,10,14,01,30,3.80
2017,10,14,01,31,3.80
2017,10,14,01,32,3.90
2017,10,14,01,33,3.90
2017,10,14,01,34,3.90
2017,10,14,01,35,3.90
2017,10,14,01,36,3.90
2017,10,14,01,37,3.90
2017,10,14,01,38,4.00
2017,10,14,01,39,4.00
2017,10,14,01,40,4.00
2017,10,14,01,41,4.00
2017,10,14,01,42,4.00
2017,10,14,01,43,4.10
2017,10,14,01,44,4.10
2017,10,14,01,45,4.10
2017,10,14,01,46,4.10
2017,10,14,01,47,4.10
2017,10,14,01,48,4.10
2017,10,14,01,49,4.10
2017,10,14,01,50,4.10
2017,10,14,01,51,4.10
2017,10,14,01,52,4.20
2017,10,14,01,53,4.20
2017,10,14,01,54,4.20
2017,10,14,01,55,4.20
2017,10,14,01,56,4.20
2017,10,14,01,57,4.20
2017,10,14,01,58,4.20
2017,10,14,01,59,4.20
2017,10,14,02,00,4.20
2017,10,14,02,01,4.20
2017,10,14,02,02,4.20
2017,10,14,02,03,4.20
2017,10,14,02,04,4.30
2017,10,14,02,05,4.30
2017,10,14,02,06,4.30
2017,10,14,02,07,4.30
2017,10,14,02,08,4.30
2017,10,14,02,09,4.30
2017,10,14,02,10,4.30
2017,10,14,02,11,4.30
2017,10,14,02,12,4.30
2017,10,14,02,13,4.30
2017,10,14,02,14,4.30
2017,10,14,02,15,4.30
2017,10,14,02,16,4.30
2017,10,14,02,17,4.30
2017,10,14,02,18,4.30
2017,10,14,02,19,4.30
2017,10,14,02,20,4.40
2017,10,14,02,21,4.40
2017,10,14,02,22,4.40
2017,10,14,02,23,4.40
2017,10,14,02,24,4.40
2017,10,14,02,25,4.40
2017,10,14,02,26,4.40
2017,10,14,02,27,4.40
2017,10,14,02,28,4.40
2017,10,14,02,29,4.40
2017,10,14,02,30,4.40
2017,10,14,02,31,4.50
2017,10,14,02,32,4.50
2017,10,14,02,33,4.50
2017,10,14,02,34,4.50
2017,10,14,02,35,4.50
2017,10,14,02,36,4.60
2017,10,14,02,37,4.60
2017,10,14,02,38,4.60
2017,10,14,02,39,4.60
2017,10,14,02,40,4.60
2017,10,14,02,41,4.60
2017,10,14,02,42,4.60
2017,10,14,02,43,4.60
2017,10,14,02,44,4.60
2017,10,14,02,45,4.60
2017,10,14,02,46,4.60
2017,10,14,02,47,4.60
2017,10,14,02,48,4.60
2017,10,14,02,49,4.70
2017,10,14,02,50,4.70
2017,10,14,02,51,4.70
2017,10,14,02,52,4.70
2017,10,14,02,53,4.70
2017,10,14,02,54,4.70
2017,10,14,02,55,4.70
2017,10,14,02,56,4.70
2017,10,14,02,57,4.70
2017,10,14,02,58,4.70
2017,10,14,02,59,4.70
2017,10,14,03,00,4.80
2017,10,14,03,01,4.80
2017,10,14,03,02,4.80
2017,10,14,03,03,4.80
2017,10,14,03,04,4.80
2017,10,14,03,05,4.80
2017,10,14,03,06,4.80
2017,10,14,03,07,4.80
2017,10,14,03,08,4.80
2017,10,14,03,09,4.80
2017,10,14,03,10,4.80
2017,10,14,03,11,4.80
2017,10,14,03,12,4.90
2017,10,14,03,13,4.90
2017,10,14,03,14,4.90
2017,10,14,03,15,4.90
2017,10,14,03,16,4.90
2017,10,14,03,17,4.90
2017,10,14,03,18,4.90
2017,10,14,03,19,4.90
2017,10,14,03,20,4.90
2017,10,14,03,21,4.90
2017,10,14,03,22,4.90
2017,10,14,03,23,5.00
2017,10,14,03,24,5.00
2017,10,14,03,25,5.00
2017,10,14,03,26,5.00
2017,10,14,03,27,5.00
2017,10,14,03,28,5.10
2017,10,14,03,29,5.10
2017,10,14,03,30,5.10
2017,10,14,03,31,5.10
2017,10,14,03,32,5.10
2017,10,14,03,33,5.10
2017,10,14,03,34,5.10
2017,10,14,03,35,5.20
2017,10,14,03,36,5.20
2017,10,14,03,37,5.20
2017,10,14,03,38,5.20
2017,10,14,03,39,5.20
2017,10,14,03,40,5.20
2017,10,14,03,41,5.20
2017,10,14,03,42,5.20
2017,10,14,03,43,5.20
2017,10,14,03,44,5.20
2017,10,14,03,45,5.20
2017,10,14,03,46,5.20
2017,10,14,03,47,5.20
2017,10,14,03,48,5.20
2017,10,14,03,49,5.20
2017,10,14,03,50,5.20
2017,10,14,03,51,5.20
2017,10,14,03,52,5.20
2017,10,14,03,53,5.20
2017,10,14,03,54,5.20
2017,10,14,03,55,5.20
2017,10,14,03,56,5.20
2017,10,14,03,57,5.20
2017,10,14,03,58,5.20
2017,10,14,03,59,5.20
2017,10,14,04,00,5.30
2017,10,14,04,01,5.30
2017,10,14,04,02,5.30
2017,10,14,04,03,5.30
2017,10,14,04,04,5.30
2017,10,14,04,05,5.30
2017,10,14,04,06,5.30
2017,10,14,04,07,5.30
2017,10,14,04,08,5.30
2017,10,14,04,09,5.30
2017,10,14,04,10,5.30
2017,10,14,04,11,5.30
2017,10,14,04,12,5.30
2017,10,14,04,13,5.40
2017,10,14,04,14,5.40
2017,10,14,04,15,5.40
2017,10,14,04,16,5.40
2017,10,14,04,17,5.40
2017,10,14,04,18,5.40
2017,10,14,04,19,5.40
2017,10,14,04,20,5.40
2017,10,14,04,21,5.40
2017,10,14,04,22,5.40
2017,10,14,04,23,5.40
2017,10,14,04,24,5.40
2017,10,14,04,25,5.40
2017,10,14,04,26,5.40
2017,10,14,04,27,5.50
2017,10,14,04,28,5.50
2017,10,14,04,29,5.50
2017,10,14,04,30,5.50
2017,10,14,04,31,5.50
2017,10,14,04,32,5.50
2017,10,14,04,33,5.50
2017,10,14,04,34,5.50
2017,10,14,04,35,5.50
2017,10,14,04,36,5.50
2017,10,14,04,37,5.50
2017,10,14,04,38,5.50
2017,10,14,04,39,5.60
2017,10,14,04,40,5.60
2017,10,14,04,41,5.60
2017,10,14,04,42,5.60
2017,10,14,04,43,5.60
2017,10,14,04,44,5.60
2017,10,14,04,45,5.60
2017,10,14,04,46,5.60
2017,10,14,04,47,5.60
2017,10,14,04,48,5.60
2017,10,14,04,49,5.60
2017,10,14,04,50,5.60
2017,10,14,04,51,5.60
2017,10,14,04,52,5.60
2017,10,14,04,53,5.60
2017,10,14,04,54,5.60
2017,10,14,04,55,5.60
2017,10,14,04,56,5.60
2017,10,14,04,57,5.60
2017,10,14,04,58,5.60
2017,10,14,04,59,5.60
2017,10,14,05,00,5.70
2017,10,14,05,01,5.70
2017,10,14,05,02,5.70
2017,10,14,05,03,5.70
2017,10,14,05,04,5.70
2017,10,14,05,05,5.70
2017,10,14,05,06,5.70
2017,10,14,05,07,5.70
2017,10,14,05,08,5.70
2017,10,14,05,09,5.70
2017,10,14,05,10,5.70
2017,10,14,05,11,5.70
2017,10,14,05,12,5.70
2017,10,14,05,13,5.70
2017,10,14,05,14,5.70
2017,10,14,05,15,5.70
2017,10,14,05,16,5.70
2017,10,14,05,17,5.70
2017,10,14,05,18,5.80
2017,10,14,05,19,5.80
2017,10,14,05,20,5.80
2017,10,14,05,21,5.80
2017,10,14,05,22,5.80
2017,10,14,05,23,5.80
2017,10,14,05,24,5.80
2017,10,14,05,25,5.80
2017,10,14,05,26,5.80
2017,10,14,05,27,5.80
2017,10,14,05,28,5.80
2017,10,14,05,29,5.80
2017,10,14,05,30,5.80
2017,10,14,05,31,5.80
2017,10,14,05,32,5.80
2017,10,14,05,33,5.80
2017,10,14,05,34,5.90
2017,10,14,05,35,5.90
2017,10,14,05,36,5.90
2017,10,14,05,37,5.90
2017,10,14,05,38,5.90
2017,10,14,05,39,5.90
2017,10,14,05,40,5.90
2017,10,14,05,41,6.00
2017,10,14,05,42,5.90
2017,10,14,05,43,6.00
2017,10,14,05,44,6.00
2017,10,14,05,45,6.00
2017,10,14,05,46,6.00
2017,10,14,05,47,6.10
2017,10,14,05,48,6.10
2017,10,14,05,49,6.10
2017,10,14,05,50,6.10
2017,10,14,05,51,6.20
2017,10,14,05,52,6.20
2017,10,14,05,53,6.20
2017,10,14,05,54,6.30
2017,10,14,05,55,6.30
2017,10,14,05,56,6.40
2017,10,14,05,57,6.40
2017,10,14,05,58,6.50
2017,10,14,05,59,6.60
2017,10,14,06,00,6.60
2017,10,14,06,01,6.60
2017,10,14,06,02,6.70
2017,10,14,06,03,6.70
2017,10,14,06,04,6.80
2017,10,14,06,05,6.80
2017,10,14,06,06,6.80
2017,10,14,06,07,6.80
2017,10,14,06,08,6.80
2017,10,14,06,09,6.80
2017,10,14,06,10,6.80
2017,10,14,06,11,6.80
2017,10,14,06,12,6.80
2017,10,14,06,13,6.90
2017,10,14,06,14,6.90
2017,10,14,06,15,6.90
2017,10,14,06,16,6.80
2017,10,14,06,17,6.80
2017,10,14,06,18,6.80
2017,10,14,06,19,6.80
2017,10,14,06,20,6.90
2017,10,14,06,21,6.90
2017,10,14,06,22,6.90
2017,10,14,06,23,6.90
2017,10,14,06,24,6.90
2017,10,14,06,25,6.90
2017,10,14,06,26,6.90
2017,10,14,06,27,6.90
2017,10,14,06,28,6.90
2017,10,14,06,29,6.90
2017,10,14,06,30,6.90
2017,10,14,06,31,6.90
2017,10,14,06,32,6.90
2017,10,14,06,33,6.90
2017,10,14,06,34,7.00
2017,10,14,06,35,7.00
2017,10,14,06,36,7.00
2017,10,14,06,37,7.00
2017,10,14,06,38,7.00
2017,10,14,06,39,7.00
2017,10,14,06,40,7.10
2017,10,14,06,41,7.10
2017,10,14,06,42,7.10
2017,10,14,06,43,7.10
2017,10,14,06,44,7.20
2017,10,14,06,45,7.20
2017,10,14,06,46,7.20
2017,10,14,06,47,7.30
2017,10,14,06,48,7.30
2017,10,14,06,49,7.30
2017,10,14,06,50,7.30
2017,10,14,06,51,7.30
2017,10,14,06,52,7.30
2017,10,14,06,53,7.30
2017,10,14,06,54,7.30
2017,10,14,06,55,7.40
2017,10,14,06,56,7.40
2017,10,14,06,57,7.40
2017,10,14,06,58,7.40
2017,10,14,06,59,7.40
2017,10,14,07,00,7.40
2017,10,14,07,01,7.40
2017,10,14,07,02,7.40
2017,10,14,07,03,7.40
2017,10,14,07,04,7.40
2017,10,14,07,05,7.50
2017,10,14,07,06,7.50
2017,10,14,07,07,7.50
2017,10,14,07,08,7.50
2017,10,14,07,09,7.50
2017,10,14,07,10,7.50
2017,10,14,07,11,7.50
2017,10,14,07,12,7.50
2017,10,14,07,13,7.50
2017,10,14,07,14,7.50
2017,10,14,07,15,7.60
2017,10,14,07,16,7.60
2017,10,14,07,17,7.60
2017,10,14,07,18,7.60
2017,10,14,07,19,7.60
2017,10,14,07,20,7.60
2017,10,14,07,21,7.60
2017,10,14,07,22,7.60
2017,10,14,07,23,7.70
2017,10,14,07,24,7.70
2017,10,14,07,25,7.70
2017,10,14,07,26,7.70
2017,10,14,07,27,7.70
2017,10,14,07,28,7.70
2017,10,14,07,29,7.70
2017,10,14,07,30,7.80
2017,10,14,07,31,7.80
2017,10,14,07,32,7.80
2017,10,14,07,33,7.80
2017,10,14,07,34,7.80
2017,10,14,07,35,7.80
2017,10,14,07,36,7.80
2017,10,14,07,37,7.80
2017,10,14,07,38,7.80
2017,10,14,07,39,7.80
2017,10,14,07,40,7.80
2017,10,14,07,41,7.80
2017,10,14,07,42,7.80
2017,10,14,07,43,7.80
2017,10,14,07,44,7.80
2017,10,14,07,45,7.80
2017,10,14,07,46,7.80
2017,10,14,07,47,7.80
2017,10,14,07,48,7.80
2017,10,14,07,49,7.80
2017,10,14,07,50,7.80
2017,10,14,07,51,7.80
2017,10,14,07,52,7.80
2017,10,14,07,53,7.80
2017,10,14,07,54,7.90
2017,10,14,07,55,7.90
2017,10,14,07,56,7.90
2017,10,14,07,57,7.90
2017,10,14,07,58,7.90
2017,10,14,07,59,7.90
2017,10,14,08,00,7.90
2017,10,14,08,01,7.90
2017,10,14,08,02,7.90
2017,10,14,08,03,8.00
2017,10,14,08,04,8.00
2017,10,14,08,05,7.90
2017,10,14,08,06,7.90
2017,10,14,08,07,7.90
2017,10,14,08,08,7.90
2017,10,14,08,09,7.90
2017,10,14,08,10,7.90
2017,10,14,08,11,7.90
2017,10,14,08,12,7.90
2017,10,14,08,13,7.90
2017,10,14,08,14,7.80
2017,10,14,08,15,7.80
2017,10,14,08,16,7.80
2017,10,14,08,17,7.80
2017,10,14,08,18,7.80
2017,10,14,08,19,7.80
2017,10,14,08,20,7.80
2017,10,14,08,21,7.80
2017,10,14,08,22,7.70
2017,10,14,08,23,7.70
2017,10,14,08,24,7.70
2017,10,14,08,25,7.70
2017,10,14,08,26,7.70
2017,10,14,08,27,7.70
2017,10,14,08,28,7.70
2017,10,14,08,29,7.70
2017,10,14,08,30,7.80
2017,10,14,08,31,7.80
2017,10,14,08,32,7.80
2017,10,14,08,33,7.80
2017,10,14,08,34,7.80
2017,10,14,08,35,7.80
2017,10,14,08,36,7.80
2017,10,14,08,37,7.80
2017,10,14,08,38,7.80
2017,10,14,08,39,7.90
2017,10,14,08,40,7.90
2017,10,14,08,41,7.90
2017,10,14,08,42,7.90
2017,10,14,08,43,7.90
2017,10,14,08,44,7.90
2017,10,14,08,45,7.90
2017,10,14,08,46,7.90
2017,10,14,08,47,7.90
2017,10,14,08,48,7.90
2017,10,14,08,49,7.90
2017,10,14,08,50,7.90
2017,10,14,08,51,7.90
2017,10,14,08,52,7.90
2017,10,14,08,53,8.00
2017,10,14,08,54,8.00
2017,10,14,08,55,8.00
2017,10,14,08,56,8.00
2017,10,14,08,57,8.00
2017,10,14,08,58,8.00
2017,10,14,08,59,8.00
2017,10,14,09,00,8.00
2017,10,14,09,01,8.00
2017,10,14,09,02,8.00
2017,10,14,09,03,8.00
2017,10,14,09,04,8.00
2017,10,14,09,05,8.00
2017,10,14,09,06,8.00
2017,10,14,09,07,8.10
2017,10,14,09,08,8.10
2017,10,14,09,09,8.20
2017,10,14,09,10,8.20
2017,10,14,09,11,8.20
2017,10,14,09,12,8.30
2017,10,14,09,13,8.30
2017,10,14,09,14,8.40
2017,10,14,09,15,8.40
2017,10,14,09,16,8.40
2017,10,14,09,17,8.50
2017,10,14,09,18,8.50
2017,10,14,09,19,8.60
2017,10,14,09,20,8.60
2017,10,14,09,21,8.70
2017,10,14,09,22,8.70
2017,10,14,09,23,8.70
2017,10,14,09,24,8.80
2017,10,14,09,25,8.80
2017,10,14,09,26,8.80
2017,10,14,09,27,8.90
2017,10,14,09,28,8.90
2017,10,14,09,29,8.90
2017,10,14,09,30,8.90
2017,10,14,09,31,9.00
2017,10,14,09,32,9.00
2017,10,14,09,33,9.10
2017,10,14,09,34,9.10
2017,10,14,09,35,9.10
2017,10,14,09,36,9.10
2017,10,14,09,37,9.10
2017,10,14,09,38,9.20
2017,10,14,09,39,9.20
2017,10,14,09,40,9.20
2017,10,14,09,41,9.20
2017,10,14,09,42,9.20
2017,10,14,09,43,9.20
2017,10,14,09,44,9.20
2017,10,14,09,45,9.20
2017,10,14,09,46,9.20
2017,10,14,09,47,9.20
2017,10,14,09,48,9.30
2017,10,14,09,49,9.30
2017,10,14,09,50,9.30
2017,10,14,09,51,9.30
2017,10,14,09,52,9.30
2017,10,14,09,53,9.30
2017,10,14,09,54,9.30
2017,10,14,09,55,9.30
2017,10,14,09,56,9.30
2017,10,14,09,57,9.30
2017,10,14,09,58,9.30
2017,10,14,09,59,9.30
2017,10,14,10,00,9.30
2017,10,14,10,01,9.30
2017,10,14,10,02,9.30
2017,10,14,10,03,9.20
2017,10,14,10,04,9.20
2017,10,14,10,05,9.20
2017,10,14,10,06,9.20
2017,10,14,10,07,9.20
2017,10,14,10,08,9.20
2017,10,14,10,09,9.20
2017,10,14,10,10,9.20
2017,10,14,10,11,9.20
2017,10,14,10,12,9.20
2017,10,14,10,13,9.20
2017,10,14,10,14,9.20
2017,10,14,10,15,9.20
2017,10,14,10,16,9.20
2017,10,14,10,17,9.20
2017,10,14,10,18,9.20
2017,10,14,10,19,9.20
2017,10,14,10,20,9.20
2017,10,14,10,21,9.20
2017,10,14,10,22,9.20
2017,10,14,10,23,9.20
2017,10,14,10,24,9.20
2017,10,14,10,25,9.20
2017,10,14,10,26,9.20
2017,10,14,10,27,9.20
2017,10,14,10,28,9.20
2017,10,14,10,29,9.20
2017,10,14,10,30,9.20
2017,10,14,10,31,9.20
2017,10,14,10,32,9.20
2017,10,14,10,33,9.20
2017,10,14,10,34,9.20
2017,10,14,10,35,9.20
2017,10,14,10,36,9.20
2017,10,14,10,37,9.20
2017,10,14,10,38,9.20
2017,10,14,10,39,9.20
2017,10,14,10,40,9.20
2017,10,14,10,41,9.20
2017,10,14,10,42,9.20
2017,10,14,10,43,9.20
2017,10,14,10,44,9.20
2017,10,14,10,45,9.30
2017,10,14,10,46,9.30
2017,10,14,10,47,9.30
2017,10,14,10,48,9.30
2017,10,14,10,49,9.30
2017,10,14,10,50,9.30
2017,10,14,10,51,9.30
2017,10,14,10,52,9.40
2017,10,14,10,53,9.40
2017,10,14,10,54,9.40
2017,10,14,10,55,9.40
2017,10,14,10,56,9.40
2017,10,14,10,57,9.40
2017,10,14,10,58,9.40
2017,10,14,10,59,9.40
2017,10,14,11,00,9.40
2017,10,14,11,01,9.40
2017,10,14,11,02,9.50
2017,10,14,11,03,9.50
2017,10,14,11,04,9.50
2017,10,14,11,05,9.40
2017,10,14,11,06,9.50
2017,10,14,11,07,9.40
2017,10,14,11,08,9.40
2017,10,14,11,09,9.40
2017,10,14,11,10,9.40
2017,10,14,11,11,9.40
2017,10,14,11,12,9.40
2017,10,14,11,13,9.40
2017,10,14,11,14,9.40
2017,10,14,11,15,9.40
2017,10,14,11,16,9.40
2017,10,14,11,17,9.40
2017,10,14,11,18,9.40
2017,10,14,11,19,9.40
2017,10,14,11,20,9.40
2017,10,14,11,21,9.40
2017,10,14,11,22,9.40
2017,10,14,11,23,9.40
2017,10,14,11,24,9.40
2017,10,14,11,25,9.40
2017,10,14,11,26,9.40
2017,10,14,11,27,9.40
2017,10,14,11,28,9.40
2017,10,14,11,29,9.40
2017,10,14,11,30,9.40
2017,10,14,11,31,9.40
2017,10,14,11,32,9.40
2017,10,14,11,33,9.40
2017,10,14,11,34,9.40
2017,10,14,11,35,9.40
2017,10,14,11,36,9.40
2017,10,14,11,37,9.40
2017,10,14,11,38,9.40
2017,10,14,11,39,9.40
2017,10,14,11,40,9.40
2017,10,14,11,41,9.40
2017,10,14,11,42,9.40
2017,10,14,11,43,9.40
2017,10,14,11,44,9.40
2017,10,14,11,45,9.40
2017,10,14,11,46,9.40
2017,10,14,11,47,9.40
2017,10,14,11,48,9.40
2017,10,14,11,49,9.50
2017,10,14,11,50,9.50
2017,10,14,11,51,9.50
2017,10,14,11,52,9.50
2017,10,14,11,53,9.50
2017,10,14,11,54,9.50
2017,10,14,11,55,9.50
2017,10,14,11,56,9.50
2017,10,14,11,57,9.50
2017,10,14,11,58,9.50
2017,10,14,11,59,9.50
2017,10,14,12,00,9.50
2017,10,14,12,01,9.50
2017,10,14,12,02,9.50
2017,10,14,12,03,9.50
2017,10,14,12,04,9.50
2017,10,14,12,05,9.50
2017,10,14,12,06,9.50
2017,10,14,12,07,9.50
2017,10,14,12,08,9.50
2017,10,14,12,09,9.50
2017,10,14,12,10,9.50
2017,10,14,12,11,9.50
2017,10,14,12,12,9.50
2017,10,14,12,13,9.50
2017,10,14,12,14,9.50
2017,10,14,12,15,9.50
2017,10,14,12,16,9.50
2017,10,14,12,17,9.50
2017,10,14,12,18,9.50
2017,10,14,12,19,9.60
2017,10,14,12,20,9.60
2017,10,14,12,21,9.60
2017,10,14,12,22,9.60
2017,10,14,12,23,9.60
2017,10,14,12,24,9.60
2017,10,14,12,25,9.60
2017,10,14,12,26,9.60
2017,10,14,12,27,9.60
2017,10,14,12,28,9.60
2017,10,14,12,29,9.60
2017,10,14,12,30,9.60
2017,10,14,12,31,9.60
2017,10,14,12,32,9.60
2017,10,14,12,33,9.60
2017,10,14,12,34,9.60
2017,10,14,12,35,9.60
2017,10,14,12,36,9.60
2017,10,14,12,37,9.60
2017,10,14,12,38,9.60
2017,10,14,12,39,9.60
2017,10,14,12,40,9.60
2017,10,14,12,41,9.60
2017,10,14,12,42,9.60
2017,10,14,12,43,9.60
2017,10,14,12,44,9.60
2017,10,14,12,45,9.60
2017,10,14,12,46,9.60
2017,10,14,12,47,9.60
2017,10,14,12,48,9.60
2017,10,14,12,49,9.60
2017,10,14,12,50,9.60
2017,10,14,12,51,9.70
2017,10,14,12,52,9.70
2017,10,14,12,53,9.70
2017,10,14,12,54,9.70
2017,10,14,12,55,9.70
2017,10,14,12,56,9.80
2017,10,14,12,57,9.80
2017,10,14,12,58,9.80
2017,10,14,12,59,9.80
2017,10,14,13,00,9.80
2017,10,14,13,01,9.80
2017,10,14,13,02,9.80
2017,10,14,13,03,9.80
2017,10,14,13,04,9.90
2017,10,14,13,05,9.80
2017,10,14,13,06,9.90
2017,10,14,13,07,9.90
2017,10,14,13,08,9.90
2017,10,14,13,09,9.90
2017,10,14,13,10,9.90
2017,10,14,13,11,9.90
2017,10,14,13,12,9.90
2017,10,14,13,13,9.90
2017,10,14,13,14,9.90
2017,10,14,13,15,9.90
2017,10,14,13,16,9.90
2017,10,14,13,17,10.00
2017,10,14,13,18,10.00
2017,10,14,13,19,10.00
2017,10,14,13,20,10.00
2017,10,14,13,21,10.00
2017,10,14,13,22,10.00
2017,10,14,13,23,10.00
2017,10,14,13,24,10.00
2017,10,14,13,25,10.00
2017,10,14,13,26,10.00
2017,10,14,13,27,10.00
2017,10,14,13,28,9.90
2017,10,14,13,29,9.90
2017,10,14,13,30,9.90
2017,10,14,13,31,9.90
2017,10,14,13,32,9.90
2017,10,14,13,33,10.00
2017,10,14,13,34,10.00
2017,10,14,13,35,10.00
2017,10,14,13,36,10.00
2017,10,14,13,37,10.00
2017,10,14,13,38,10.00
2017,10,14,13,39,10.00
2017,10,14,13,40,10.00
2017,10,14,13,41,10.00
2017,10,14,13,42,10.00
2017,10,14,13,43,10.10
2017,10,14,13,44,10.10
2017,10,14,13,45,10.10
2017,10,14,13,46,10.10
2017,10,14,13,47,10.10
2017,10,14,13,48,10.10
2017,10,14,13,49,10.10
2017,10,14,13,50,10.10
2017,10,14,13,51,10.10
2017,10,14,13,52,10.10
2017,10,14,13,53,10.10
2017,10,14,13,54,10.10
2017,10,14,13,55,10.10
2017,10,14,13,56,10.10
2017,10,14,13,57,10.10
2017,10,14,13,58,10.10
2017,10,14,13,59,10.10
2017,10,14,14,00,10.00
2017,10,14,14,01,10.00
2017,10,14,14,02,10.00
2017,10,14,14,03,10.00
2017,10,14,14,04,10.00
2017,10,14,14,05,10.00
2017,10,14,14,06,10.00
2017,10,14,14,07,10.00
2017,10,14,14,08,10.00
2017,10,14,14,09,10.00
2017,10,14,14,10,10.00
2017,10,14,14,11,10.00
2017,10,14,14,12,10.00
2017,10,14,14,13,10.00
2017,10,14,14,14,10.00
2017,10,14,14,15,10.10
2017,10,14,14,16,10.10
2017,10,14,14,17,10.10
2017,10,14,14,18,10.10
2017,10,14,14,19,10.10
2017,10,14,14,20,10.10
2017,10,14,14,21,10.10
2017,10,14,14,22,10.10
2017,10,14,14,23,10.10
2017,10,14,14,24,10.10
2017,10,14,14,25,10.10
2017,10,14,14,26,10.10
2017,10,14,14,27,10.10
2017,10,14,14,28,10.10
2017,10,14,14,29,10.10
2017,10,14,14,30,10.10
2017,10,14,14,31,10.10
2017,10,14,14,32,10.10
2017,10,14,14,33,10.10
2017,10,14,14,34,10.10
2017,10,14,14,35,10.00
2017,10,14,14,36,10.00
2017,10,14,14,37,10.00
2017,10,14,14,38,10.00
2017,10,14,14,39,10.00
2017,10,14,14,40,10.00
2017,10,14,14,41,10.00
2017,10,14,14,42,9.90
2017,10,14,14,43,9.90
2017,10,14,14,44,9.90
2017,10,14,14,45,9.90
2017,10,14,14,46,9.90
2017,10,14,14,47,9.90
2017,10,14,14,48,9.90
2017,10,14,14,49,9.90
2017,10,14,14,50,9.90
2017,10,14,14,51,9.90
2017,10,14,14,52,9.90
2017,10,14,14,53,9.90
2017,10,14,14,54,9.90
2017,10,14,14,55,9.90
2017,10,14,14,56,9.90
2017,10,14,14,57,9.90
2017,10,14,14,58,9.90
2017,10,14,14,59,9.90
2017,10,14,15,00,9.90
2017,10,14,15,01,9.90
2017,10,14,15,02,9.90
2017,10,14,15,03,9.90
2017,10,14,15,04,9.90
2017,10,14,15,05,9.90
2017,10,14,15,06,9.90
2017,10,14,15,07,9.90
2017,10,14,15,08,9.90
2017,10,14,15,09,9.90
2017,10,14,15,10,9.90
2017,10,14,15,11,9.90
2017,10,14,15,12,9.90
2017,10,14,15,13,9.90
2017,10,14,15,14,9.90
2017,10,14,15,15,9.90
2017,10,14,15,16,9.90
2017,10,14,15,17,9.90
2017,10,14,15,18,9.90
2017,10,14,15,19,9.90
2017,10,14,15,20,9.90
2017,10,14,15,21,9.90
2017,10,14,15,22,9.90
2017,10,14,15,23,9.90
2017,10,14,15,24,9.90
2017,10,14,15,25,9.90
2017,10,14,15,26,9.80
2017,10,14,15,27,9.80
2017,10,14,15,28,9.80
2017,10,14,15,29,9.80
2017,10,14,15,30,9.80
2017,10,14,15,31,9.80
2017,10,14,15,32,9.80
2017,10,14,15,33,9.80
2017,10,14,15,34,9.80
2017,10,14,15,35,9.80
2017,10,14,15,36,9.80
2017,10,14,15,37,9.80
2017,10,14,15,38,9.80
2017,10,14,15,39,9.80
2017,10,14,15,40,9.80
2017,10,14,15,41,9.80
2017,10,14,15,42,9.80
2017,10,14,15,43,9.80
2017,10,14,15,44,9.80
2017,10,14,15,45,9.80
2017,10,14,15,46,9.80
2017,10,14,15,47,9.80
2017,10,14,15,48,9.80
2017,10,14,15,49,9.80
2017,10,14,15,50,9.80
2017,10,14,15,51,9.80
2017,10,14,15,52,9.80
2017,10,14,15,53,9.80
2017,10,14,15,54,9.80
2017,10,14,15,55,9.80
2017,10,14,15,56,9.80
2017,10,14,15,57,9.80
2017,10,14,15,58,9.80
2017,10,14,15,59,9.80
2017,10,14,16,00,9.80
2017,10,14,16,01,9.80
2017,10,14,16,02,9.80
2017,10,14,16,03,9.80
2017,10,14,16,04,9.80
2017,10,14,16,05,9.80
2017,10,14,16,06,9.80
2017,10,14,16,07,9.80
2017,10,14,16,08,9.80
2017,10,14,16,09,9.80
2017,10,14,16,10,9.80
2017,10,14,16,11,9.80
2017,10,14,16,12,9.80
2017,10,14,16,13,9.80
2017,10,14,16,14,9.80
2017,10,14,16,15,9.80
2017,10,14,16,16,9.80
2017,10,14,16,17,9.80
2017,10,14,16,18,9.80
2017,10,14,16,19,9.80
2017,10,14,16,20,9.80
2017,10,14,16,21,9.80
2017,10,14,16,22,9.80
2017,10,14,16,23,9.80
2017,10,14,16,24,9.80
2017,10,14,16,25,9.80
2017,10,14,16,26,9.80
2017,10,14,16,27,9.80
2017,10,14,16,28,9.80
2017,10,14,16,29,9.80
2017,10,14,16,30,9.80
2017,10,14,16,31,9.80
2017,10,14,16,32,9.80
2017,10,14,16,33,9.80
2017,10,14,16,34,9.80
2017,10,14,16,35,9.80
2017,10,14,16,36,9.80
2017,10,14,16,37,9.80
2017,10,14,16,38,9.80
2017,10,14,16,39,9.80
2017,10,14,16,40,9.80
2017,10,14,16,41,9.80
2017,10,14,16,42,9.80
2017,10,14,16,43,9.80
2017,10,14,16,44,9.80
2017,10,14,16,45,9.80
2017,10,14,16,46,9.80
2017,10,14,16,47,9.80
2017,10,14,16,48,9.80
2017,10,14,16,49,9.80
2017,10,14,16,50,9.80
2017,10,14,16,51,9.80
2017,10,14,16,52,9.80
2017,10,14,16,53,9.80
2017,10,14,16,54,9.80
2017,10,14,16,55,9.80
2017,10,14,16,56,9.80
2017,10,14,16,57,9.80
2017,10,14,16,58,9.80
2017,10,14,16,59,9.80
2017,10,14,17,00,9.80
2017,10,14,17,01,9.80
2017,10,14,17,02,9.80
2017,10,14,17,03,9.80
2017,10,14,17,04,9.80
2017,10,14,17,05,9.80
2017,10,14,17,06,9.80
2017,10,14,17,07,9.80
2017,10,14,17,08,9.80
2017,10,14,17,09,9.80
2017,10,14,17,10,9.80
2017,10,14,17,11,9.80
2017,10,14,17,12,9.80
2017,10,14,17,13,9.80
2017,10,14,17,14,9.80
2017,10,14,17,15,9.80
2017,10,14,17,16,9.80
2017,10,14,17,17,9.80
2017,10,14,17,18,9.80
2017,10,14,17,19,9.80
2017,10,14,17,20,9.80
2017,10,14,17,21,9.80
2017,10,14,17,22,9.80
2017,10,14,17,23,9.80
2017,10,14,17,24,9.80
2017,10,14,17,25,9.80
2017,10,14,17,26,9.80
2017,10,14,17,27,9.80
2017,10,14,17,28,9.80
2017,10,14,17,29,9.80
2017,10,14,17,30,9.80
2017,10,14,17,31,9.80
2017,10,14,17,32,9.80
2017,10,14,17,33,9.80
2017,10,14,17,34,9.80
2017,10,14,17,35,9.80
2017,10,14,17,36,9.80
2017,10,14,17,37,9.80
2017,10,14,17,38,9.80
2017,10,14,17,39,9.70
2017,10,14,17,40,9.70
2017,10,14,17,41,9.70
2017,10,14,17,42,9.70
2017,10,14,17,43,9.60
2017,10,14,17,44,9.60
2017,10,14,17,45,9.60
2017,10,14,17,46,9.60
2017,10,14,17,47,9.50
2017,10,14,17,48,9.50
2017,10,14,17,49,9.50
2017,10,14,17,50,9.40
2017,10,14,17,51,9.40
2017,10,14,17,52,9.40
2017,10,14,17,53,9.40
2017,10,14,17,54,9.40
2017,10,14,17,55,9.40
2017,10,14,17,56,9.40
2017,10,14,17,57,9.30
2017,10,14,17,58,9.30
2017,10,14,17,59,9.30
2017,10,14,18,00,9.30
2017,10,14,18,01,9.20
2017,10,14,18,02,9.20
2017,10,14,18,03,9.20